Location: ?p Thanh B�nh
(16.5833°N, 107.5333°E)
Time: 10:18:08
(UTC+00:00)

ATLAS CENTAUR R/B - Pass Details

Date: 29 October 2020
Orbit: 478 x 667 km, 64.7° (Epoch: 22 November)

Event Time Altitude Azimuth Distance (km) Brightness Sun altitude
Exits shadow 22:16:34 - 265° (W) 1,905 3.5 -7.9°
Reaches altitude 10° 22:17:06 10° 272° (W) 1,800 3.3 -7.8°
Maximum altitude 22:18:48 12° 297° (WNW) 1,630 3.1 -7.4°
Drops below altitude 10° 22:20:29 10° 323° (NW) 1,756 3.4 -7.0°
Sets 22:23:47 0° 354° (N) 2,602 4.6 -6.2°
